Theta_e
281 280 280 280 280 280 280 280 280 281 280 280 279 278 278 277 274 273 273 274 276 278 277 276 278 277 277 277 278 277 276 280 280 277 277 276 276 281 285 287 288 288 288 288 288 288 288 289 289 289 289 289 290 291 291 290 291 291 291 291 292 292 292 293 293 293 293 293 293 293 293 293 295 294
281 280 280 279 279 279 279 279 279 279 279 279 279 278 278 277 277 274 273 273 275 277 278 276 276 277 277 277 278 277 276 282 280 278 277 276 276 283 284 284 286 286 287 287 287 288 288 288 289 288 289 289 290 290 290 290 290 291 291 291 291 292 291 292 292 291 292 292 293 292 293 293 292 292
280 279 279 279 279 279 279 279 279 278 279 279 279 277 278 278 277 276 274 272 275 276 277 277 277 277 276 277 276 278 277 280 280 277 277 276 281 282 281 283 284 284 285 285 286 287 288 288 288 288 288 288 289 290 290 289 290 290 289 290 290 290 290 290 290 290 291 292 292 292 293 293 293 293
280 279 278 278 279 279 278 278 278 278 278 278 278 278 278 277 276 276 275 273 273 276 276 276 276 276 276 276 276 275 277 280 282 278 277 277 282 279 277 281 282 283 284 285 285 286 287 288 288 288 287 288 288 288 288 289 289 288 288 288 289 289 288 288 289 290 290 291 291 292 293 292 292 292
279 279 278 278 278 279 278 278 279 279 278 278 278 278 278 277 276 276 275 274 274 274 277 276 277 277 275 275 276 275 276 276 277 281 277 277 276 276 277 277 281 282 283 284 284 285 286 287 287 287 286 286 287 287 288 289 287 287 287 287 287 287 288 288 289 289 289 290 290 291 291 292 292 290
279 278 278 277 278 279 279 279 279 279 279 278 276 276 277 276 276 275 275 273 274 272 274 275 277 275 276 273 276 275 276 276 277 276 276 277 276 276 276 276 277 282 283 283 284 285 285 286 286 286 285 286 286 287 288 286 286 286 286 285 285 284 286 287 288 288 288 289 289 289 290 291 291 291
278 277 277 277 279 280 279 278 278 278 278 277 276 275 275 275 275 275 274 273 273 273 273 274 274 274 275 275 274 276 277 278 277 276 276 276 277 277 277 277 277 281 282 283 284 284 284 284 284 285 285 285 285 285 286 286 285 284 284 284 284 284 285 286 287 287 288 288 289 290 289 289 291 291
278 277 277 277 278 279 278 278 278 277 277 276 276 275 274 274 275 274 275 275 273 273 273 273 274 274 275 274 277 278 278 276 275 276 276 275 275 275 277 277 276 279 282 282 283 283 283 283 283 283 283 284 284 285 285 285 284 283 283 282 282 283 284 285 286 286 286 287 288 289 288 288 289 290
278 277 277 277 278 278 277 277 277 277 277 276 276 275 275 275 274 275 275 274 274 273 273 272 274 275 274 275 275 276 275 275 275 275 274 274 275 275 275 276 277 280 281 281 281 281 281 282 282 282 283 283 283 284 283 283 283 282 282 281 281 283 284 285 285 285 285 286 286 287 288 288 289 289
278 277 277 278 278 278 277 277 277 277 276 276 275 275 275 275 274 274 274 274 274 273 273 273 273 274 274 274 274 274 275 275 274 273 274 273 274 274 273 274 276 276 276 275 276 279 280 280 281 281 281 282 282 282 282 282 281 281 280 280 281 283 284 284 284 285 285 285 285 286 287 288 287 288
278 278 278 278 278 278 278 277 277 277 277 277 275 275 275 275 274 274 274 274 274 274 273 273 274 273 274 274 273 274 276 275 274 273 273 272 273 273 273 273 274 275 275 278 280 279 278 279 278 279 280 280 281 281 281 280 280 279 279 280 282 283 283 284 284 284 284 284 285 285 285 285 287 288
278 278 278 278 278 278 278 278 278 277 277 277 275 275 275 275 274 274 274 274 273 273 273 273 272 273 273 273 275 275 274 273 273 274 272 270 271 272 272 272 272 274 274 273 273 276 276 276 276 278 278 278 279 279 278 278 278 278 279 281 282 283 283 283 283 283 283 284 284 284 284 284 285 287
278 278 278 278 278 279 281 282 281 280 280 277 276 275 275 275 275 274 274 274 273 273 273 273 274 273 273 274 273 272 272 272 271 271 272 271 272 272 271 272 273 274 272 272 272 272 273 272 272 272 272 273 275 275 277 276 276 278 280 281 282 282 282 283 283 283 283 283 283 284 284 284 284 284
278 278 278 279 281 282 282 282 283 283 283 282 278 276 275 275 275 274 274 274 273 273 272 273 272 272 272 272 273 273 273 273 272 272 271 270 270 270 270 271 272 273 272 271 270 271 272 272 271 271 271 272 274 273 272 272 275 278 280 281 282 282 282 282 282 282 282 283 283 283 283 283 284 284
277 277 278 279 281 281 281 281 283 284 283 283 282 281 280 279 276 274 273 273 274 273 272 272 272 272 272 272 273 273 273 273 273 271 270 270 270 269 267 267 270 274 272 270 270 270 272 271 270 270 271 271 272 272 272 277 278 278 280 281 281 281 281 282 282 282 282 282 282 283 283 283 283 283
277 277 277 278 278 278 278 278 280 281 283 283 283 282 282 281 281 280 276 274 273 272 272 271 272 271 272 272 273 273 273 272 271 270 270 269 269 268 268 269 268 271 272 270 269 269 271 271 270 269 270 271 271 272 275 277 278 279 280 280 280 281 281 281 281 281 281 282 282 282 282 282 283 283
277 277 277 277 277 277 280 278 277 278 279 282 282 282 282 281 282 282 282 281 276 274 273 271 271 272 272 272 273 273 272 274 270 269 268 269 269 269 269 270 270 271 272 270 268 268 269 270 269 268 270 270 271 271 274 276 278 279 279 280 280 280 280 281 281 281 281 281 281 282 282 282 282 282
278 277 277 276 276 277 278 277 277 276 276 277 278 278 278 278 279 281 282 281 280 278 274 273 272 273 275 273 273 274 275 271 269 268 268 267 268 269 270 272 271 272 272 269 268 267 268 268 268 268 269 270 270 270 273 276 277 278 278 279 279 280 280 280 280 280 280 281 281 281 281 281 281 282
278 278 278 277 277 276 277 277 277 276 276 276 276 276 276 277 277 277 277 278 278 278 277 274 274 274 275 275 275 275 274 272 271 270 269 270 271 272 272 271 271 270 272 271 269 264 267 268 267 268 268 269 269 270 272 275 276 277 277 278 278 279 279 279 279 280 280 280 280 280 281 281 281 281
278 278 278 277 277 276 276 278 281 279 277 276 274 275 275 276 276 277 278 280 280 278 277 276 276 275 276 279 276 274 273 272 273 274 273 272 271 269 268 266 265 266 269 271 268 265 266 268 267 267 268 268 267 269 269 273 274 275 276 277 277 277 278 278 279 279 279 279 279 280 280 280 280 280
278 278 278 278 277 277 276 279 282 282 279 275 274 274 274 274 274 275 277 280 282 282 282 282 282 282 282 282 283 282 282 280 276 273 271 269 269 267 265 266 266 265 267 269 270 267 265 266 266 266 267 267 267 267 268 268 272 274 275 275 276 276 276 277 278 278 278 278 279 279 279 280 279 279
278 278 280 279 277 277 276 280 282 283 280 275 274 273 273 271 271 272 274 274 275 280 281 282 282 282 282 282 283 283 283 282 278 271 269 270 268 266 265 264 265 266 266 267 269 262 263 264 264 264 265 265 264 266 267 268 269 272 272 273 274 275 275 276 276 276 276 277 278 278 278 279 278 275
278 277 279 280 279 278 278 281 282 283 281 276 274 273 272 271 270 271 271 271 271 270 269 271 273 275 278 278 277 277 280 280 277 274 272 272 269 267 267 265 263 262 262 268 268 264 263 264 263 263 261 261 263 265 266 266 266 267 268 268 268 272 274 275 274 274 275 276 277 277 278 278 277 274
277 277 276 279 281 281 281 281 282 283 283 277 275 273 271 270 270 270 269 270 270 269 270 269 268 270 269 270 271 272 274 276 276 274 273 272 270 267 265 263 263 262 262 266 270 266 265 263 261 264 261 258 259 261 265 265 266 266 267 267 266 270 272 271 271 272 273 274 276 276 277 277 277 272
277 276 276 275 280 282 282 282 282 282 283 282 275 274 272 272 272 272 268 271 274 270 270 270 270 270 269 270 270 271 272 273 273 274 274 272 271 268 264 263 264 264 266 268 272 268 260 260 260 261 259 258 261 261 263 264 265 265 266 266 266 266 267 267 268 267 271 272 273 274 275 276 277 274
277 277 276 275 278 281 282 282 282 282 282 283 278 275 278 279 279 276 272 271 272 273 273 272 272 272 271 271 270 271 271 272 272 272 272 273 271 270 269 267 265 263 264 267 272 268 263 261 260 261 259 258 261 261 261 262 264 265 265 266 266 266 266 265 266 266 267 268 268 270 272 275 275 275
278 278 277 277 279 281 282 282 283 283 283 282 280 281 281 281 281 280 277 275 274 273 273 273 272 272 272 272 271 271 271 271 272 272 272 272 271 270 270 270 269 268 267 267 269 268 266 262 262 262 261 261 260 260 260 260 261 264 264 265 265 266 266 265 265 265 266 267 267 272 272 272 272 273
279 278 278 278 281 281 282 282 283 283 283 281 282 283 283 282 282 280 279 277 276 274 273 272 272 272 272 272 271 271 272 271 271 271 271 271 271 270 268 267 266 266 267 268 268 268 267 264 262 263 264 261 259 258 258 262 262 262 262 264 265 265 265 265 265 265 266 267 267 267 266 266 267 267
279 281 282 282 282 282 282 283 283 283 283 283 283 283 283 282 280 279 277 277 276 275 274 273 273 272 272 272 272 273 272 271 271 269 268 268 267 265 263 262 263 265 267 267 267 267 267 266 264 263 262 261 260 260 260 260 261 261 262 262 261 263 264 265 265 265 266 266 265 265 265 265 265 266
283 283 283 283 283 282 282 281 279 278 278 281 282 281 281 279 277 277 276 276 275 274 274 273 272 272 272 272 272 271 270 268 267 267 267 266 264 262 261 260 261 262 264 265 266 267 267 266 265 264 262 261 261 260 261 260 260 261 262 261 262 263 264 264 264 265 265 265 265 265 265 266 265 266
282 282 282 281 282 281 282 281 280 280 280 279 279 277 276 275 276 276 274 274 274 274 273 273 272 271 271 270 269 268 267 267 267 267 266 264 263 261 260 259 260 260 262 262 265 266 267 267 266 265 261 260 260 260 261 261 259 260 260 262 261 258 261 263 264 264 265 264 264 264 264 265 265 266
280 280 282 282 280 280 280 280 278 278 277 277 277 276 276 276 276 277 277 277 272 270 269 269 270 269 267 267 267 267 266 266 266 266 265 264 262 261 259 257 259 259 259 259 261 264 267 266 265 264 264 262 260 260 260 260 259 259 259 261 261 262 262 262 262 263 264 264 263 262 263 264 263 264
276 275 275 275 275 276 276 276 276 276 276 275 276 276 276 276 275 274 274 273 272 270 267 267 266 266 266 266 267 266 266 266 265 265 265 264 263 261 259 259 259 258 259 259 259 261 261 260 263 264 263 262 262 262 260 258 259 259 259 260 260 260 261 262 263 263 264 262 261 261 261 263 264 264
273 273 273 273 273 273 274 274 274 274 275 274 275 275 276 275 273 273 272 272 272 271 270 269 268 267 268 267 267 266 266 265 265 266 266 263 262 260 259 258 259 259 259 260 258 259 258 258 258 259 259 260 261 261 261 259 259 259 260 260 260 260 261 262 263 263 263 262 261 260 260 261 263 264
273 271 271 271 271 272 273 273 274 274 274 274 274 274 274 273 272 272 271 271 269 268 267 268 268 268 268 268 267 266 266 266 265 265 265 264 261 261 259 258 259 258 258 259 259 257 258 258 256 257 256 256 257 257 264 263 259 259 259 260 260 261 261 261 262 262 262 261 262 260 260 261 262 263
271 271 270 270 270 271 272 273 273 274 273 273 273 272 271 271 271 270 269 268 265 264 264 266 267 268 267 267 266 266 266 266 265 264 263 262 261 260 259 259 260 259 258 258 259 258 257 258 256 256 256 255 254 254 253 265 266 262 260 260 262 262 262 261 261 261 260 260 261 261 260 260 261 263
270 270 270 270 270 271 271 271 271 271 272 272 271 272 271 270 269 267 267 267 264 264 264 263 264 266 266 266 265 265 265 265 264 263 262 262 261 260 259 259 259 259 258 258 258 259 258 257 256 255 254 254 254 254 255 256 262 267 263 260 260 260 260 259 259 258 259 260 261 262 262 262 261 262
270 270 270 270 270 269 270 269 269 269 268 269 269 268 268 268 267 267 266 266 264 262 264 263 263 264 265 265 264 264 264 264 264 263 262 261 260 259 258 258 258 257 258 257 257 257 257 256 256 256 254 254 254 254 255 254 255 259 264 262 259 259 260 258 258 258 260 262 262 263 263 262 262 262
271 270 270 270 270 269 269 269 269 269 269 269 269 269 267 266 265 266 267 267 266 265 262 262 262 263 264 265 265 264 264 263 262 261 260 259 259 258 257 257 257 256 255 256 254 256 256 256 256 256 256 255 255 256 257 255 255 257 260 265 262 260 259 259 259 260 261 261 262 263 263 264 266 269
273 273 272 271 270 270 270 271 271 271 271 271 271 270 269 269 269 269 268 267 265 264 264 264 265 266 264 265 264 264 264 262 261 259 259 258 257 257 256 256 256 256 254 255 255 255 255 256 256 257 257 258 257 255 254 255 256 257 257 260 265 264 262 262 262 261 261 262 263 262 261 263 262 264
274 273 273 272 272 272 271 272 272 272 272 272 271 271 270 270 270 269 268 267 265 265 264 264 265 265 264 264 264 263 262 260 258 257 257 257 258 257 258 259 256 255 255 255 255 255 255 257 259 264 259 254 254 255 255 254 254 255 256 258 263 265 267 266 263 262 261 262 262 261 261 261 262 262
274 274 274 273 272 273 273 272 272 272 271 270 269 268 267 268 267 269 266 267 265 265 265 265 263 262 262 262 262 261 259 258 257 257 257 255 254 256 258 257 255 254 254 255 255 256 257 255 257 257 255 254 254 253 253 253 253 254 255 257 258 263 265 266 267 267 264 263 262 261 261 261 262 261
272 272 271 271 271 270 271 270 269 269 268 267 266 266 265 263 261 262 260 262 264 264 263 262 260 259 258 258 257 257 256 256 255 255 255 255 255 254 254 255 255 255 255 256 256 254 255 254 255 254 254 252 253 253 253 254 254 254 255 255 257 258 260 263 265 266 267 268 267 265 264 262 261 259
269 269 268 268 268 267 267 268 267 267 267 267 266 264 263 260 257 256 258 259 260 260 259 258 256 256 255 255 256 256 255 255 254 253 254 254 255 254 253 255 255 255 254 254 253 254 253 254 254 254 252 254 253 252 253 254 254 255 255 255 256 256 257 258 259 262 263 264 265 267 268 269 269 269
267 267 267 266 266 266 266 266 266 265 266 264 263 261 258 257 257 256 256 257 256 255 255 255 255 254 254 254 254 255 254 259 256 254 254 254 253 255 254 254 254 254 254 253 252 253 252 252 252 252 252 253 252 253 255 255 255 255 255 255 255 256 256 257 257 257 257 257 262 266 267 268 269 269
Wind_Speed
8 7 7 7 6 5 5 5 6 6 6 6 4 4 7 6 6 3 3 4 4 5 3 4 3 3 2 3 1 1 1 2 1 0 2 3 4 8 13 15 15 15 15 15 16 16 17 17 18 19 20 21 22 23 24 24 25 26 26 26 27 27 27 26 27 27 28 28 30 29 29 29 30 30
8 8 7 6 7 4 6 6 5 5 5 5 5 6 3 4 7 4 5 4 2 2 2 1 3 3 3 3 2 2 2 4 1 1 2 3 4 9 12 14 14 14 15 16 16 16 17 17 18 19 20 21 22 23 24 25 25 25 26 26 26 26 26 26 26 27 27 28 29 30 30 30 29 29
8 9 8 6 7 5 6 6 6 4 5 6 5 4 3 3 5 6 4 3 2 4 3 1 1 5 5 4 2 1 2 4 3 2 3 3 6 9 7 13 14 14 14 15 16 17 17 18 18 20 21 22 23 23 24 24 25 25 25 25 25 25 25 25 26 27 28 28 29 30 30 30 30 31
7 8 8 6 7 6 6 6 5 5 4 4 5 4 4 3 3 5 4 5 5 1 3 4 3 5 3 4 2 2 2 3 5 3 3 3 6 4 3 8 14 14 14 14 16 18 18 18 19 20 21 22 23 23 24 25 25 25 24 24 24 24 24 25 26 27 27 28 29 29 29 30 30 30
7 7 8 7 6 6 7 6 6 5 5 4 4 3 4 4 3 4 4 5 4 2 1 4 4 5 4 1 4 3 2 1 2 2 2 2 3 3 5 5 9 14 14 15 15 16 18 18 19 19 21 22 23 23 24 24 24 24 24 24 23 23 24 25 26 27 27 28 29 29 28 28 30 30
6 7 8 7 7 6 7 7 6 6 5 5 5 4 5 5 4 3 3 4 5 5 1 0 0 2 3 1 2 3 1 2 2 3 3 2 3 4 5 6 6 12 14 15 16 16 16 18 19 20 21 22 23 24 24 23 23 23 23 23 22 22 24 25 26 26 28 28 29 29 28 28 29 30
8 8 7 8 7 6 7 6 5 5 5 5 5 5 4 5 4 4 3 3 5 4 3 2 2 2 2 2 1 0 1 2 2 3 3 3 3 3 5 6 5 9 13 15 15 16 17 16 18 19 21 23 23 23 23 23 23 23 22 22 21 22 24 25 26 26 27 28 28 29 29 29 29 29
9 9 8 7 7 6 7 7 7 6 5 5 5 5 4 4 4 4 3 2 3 3 3 2 2 1 1 1 0 0 1 2 3 3 4 3 4 4 5 5 4 6 13 14 14 16 16 16 16 18 20 22 23 23 23 22 22 22 22 22 22 23 24 25 26 26 27 27 29 30 31 30 29 29
10 9 9 9 8 8 8 7 7 7 7 6 6 6 4 4 3 3 3 3 2 3 3 2 1 0 1 1 2 2 2 4 2 2 2 3 5 6 5 4 4 7 11 12 14 15 16 16 16 18 19 21 23 23 22 21 21 22 22 22 22 23 25 25 25 26 26 27 28 29 29 30 29 29
8 9 9 9 9 9 10 9 8 7 8 6 6 6 5 5 3 4 4 3 3 3 3 3 4 1 2 2 2 2 2 4 4 3 3 3 5 5 3 3 3 3 3 3 4 7 9 10 16 18 19 21 23 22 21 20 21 22 22 22 23 24 25 25 26 26 26 27 28 29 30 31 30 29
8 8 9 9 10 10 9 9 9 8 8 7 7 7 6 5 5 5 5 4 4 4 3 3 4 4 3 3 4 2 1 3 3 3 6 5 3 1 4 6 4 3 5 7 12 10 9 13 12 16 19 20 21 21 21 20 21 22 23 23 24 24 24 25 25 26 26 27 27 28 28 28 29 29
8 8 8 9 9 8 7 8 8 9 9 6 6 6 6 6 6 6 5 5 5 4 4 5 5 4 4 3 2 1 1 2 3 1 3 6 6 6 1 2 6 6 6 6 3 4 7 9 12 15 16 17 19 20 19 19 21 23 23 24 24 24 24 25 26 26 26 26 27 28 28 27 27 28
8 7 7 7 7 8 8 10 9 7 7 8 7 6 7 7 7 5 4 5 4 4 4 5 4 4 5 4 2 3 3 4 5 2 2 5 4 4 5 4 3 6 5 4 5 4 5 9 8 7 7 6 12 12 16 15 20 21 23 25 24 24 24 25 26 26 25 25 26 27 27 27 27 27
7 7 6 7 11 12 10 9 11 12 12 10 8 8 8 7 7 7 6 6 6 5 5 6 4 5 6 5 4 4 3 1 1 3 3 5 4 4 6 6 3 2 4 7 7 6 4 8 9 7 7 6 7 6 7 8 14 21 25 24 24 24 25 26 26 26 25 25 26 27 27 27 27 26
9 7 7 6 9 9 8 7 8 10 12 12 12 11 10 9 9 8 7 7 6 6 6 5 4 5 6 5 3 4 3 3 3 4 2 2 3 4 6 9 4 1 4 6 8 10 4 6 8 7 7 6 6 6 8 17 22 25 24 24 23 23 25 26 26 26 25 25 25 27 27 26 26 26
9 9 7 6 6 6 7 6 6 7 10 11 10 10 10 13 12 10 8 6 5 6 6 6 6 4 6 3 3 3 2 3 3 2 1 2 3 5 5 6 7 1 3 7 9 12 5 5 7 8 6 6 6 8 15 21 23 24 24 23 22 23 25 26 26 26 25 25 25 26 26 26 26 26
9 8 8 7 6 5 9 7 6 6 6 9 11 10 9 9 12 13 13 9 7 5 7 7 6 7 4 4 3 2 2 2 4 3 3 3 4 5 6 7 6 3 2 6 9 12 7 4 7 7 6 5 6 8 13 20 22 24 23 22 22 24 25 26 26 25 25 25 25 26 26 26 25 25
10 10 9 8 7 6 7 7 7 7 7 6 6 6 6 6 8 11 12 13 12 9 8 6 8 5 5 5 3 3 3 3 4 3 5 3 4 5 7 5 6 6 3 6 8 11 8 3 6 8 7 4 6 7 14 21 22 22 21 20 23 25 25 26 26 26 26 25 25 25 25 25 25 25
9 9 8 8 8 7 8 8 9 8 8 7 7 7 7 7 7 6 7 7 6 7 6 7 7 6 5 4 4 4 5 5 5 4 4 5 5 5 5 5 5 5 4 6 5 9 9 2 8 9 6 6 7 6 12 19 19 19 17 19 24 25 25 25 26 26 26 25 25 25 25 25 25 25
8 8 8 8 8 8 8 10 15 11 7 7 8 8 7 6 6 7 7 10 9 8 6 6 6 5 6 8 6 5 5 4 4 4 2 2 1 2 4 7 3 4 3 5 5 6 9 5 7 10 6 7 8 7 8 13 16 13 15 22 24 24 24 24 25 26 25 25 25 25 25 25 25 25
7 7 8 8 7 8 8 11 16 16 13 7 8 8 7 6 5 6 6 11 15 16 15 15 15 14 14 15 16 15 14 10 6 4 3 5 3 1 5 7 5 5 1 3 5 7 9 4 3 10 8 7 9 8 7 6 8 10 19 22 23 24 24 24 25 25 25 25 25 25 25 25 25 26
5 7 10 9 8 9 9 12 17 17 12 8 8 8 7 7 7 6 5 3 3 8 12 15 16 17 16 18 18 18 16 15 5 7 7 3 4 5 5 6 5 7 3 6 3 0 5 3 2 7 8 8 3 5 6 1 4 13 14 19 22 23 22 24 25 24 24 24 24 24 25 25 25 16
6 6 8 13 11 9 8 13 15 17 13 8 8 8 7 8 8 8 5 5 5 5 5 5 5 6 9 9 6 5 6 8 11 6 5 4 5 5 5 5 4 7 3 2 2 4 4 4 4 2 8 10 5 4 2 2 6 6 7 9 11 18 22 24 23 23 23 23 24 24 25 25 22 13
6 6 6 9 15 15 14 14 15 16 17 10 8 7 8 8 11 5 6 6 6 6 6 6 4 5 4 3 1 1 2 5 6 6 5 5 5 5 5 4 4 6 4 1 4 5 6 3 4 0 1 3 9 2 5 8 3 6 6 9 7 14 19 19 17 21 22 21 23 23 24 24 23 13
7 7 7 6 11 17 16 15 16 15 17 13 9 9 9 10 5 7 6 7 11 7 6 6 6 6 5 5 5 4 4 5 6 6 7 6 6 6 6 5 5 8 7 5 7 4 5 0 3 2 3 3 6 10 10 6 6 5 6 6 9 10 10 10 10 11 14 19 19 23 23 24 25 18
6 7 7 7 11 16 16 16 16 17 16 17 9 9 12 11 12 8 7 6 6 6 6 6 6 6 6 6 6 7 7 7 7 7 7 6 6 5 6 6 6 7 8 4 8 4 4 6 3 5 4 3 10 4 12 12 5 5 2 5 7 9 9 10 10 9 9 8 9 13 18 24 23 24
8 6 7 7 13 17 18 17 18 17 18 14 8 12 14 14 14 11 6 7 6 6 6 6 7 7 7 7 7 7 7 7 6 6 6 7 5 5 5 5 5 7 5 2 3 5 4 6 2 4 8 6 9 10 8 8 9 2 7 7 8 8 9 8 9 10 9 9 9 19 19 20 22 23
6 7 7 8 15 18 18 19 18 17 16 9 13 15 15 15 13 7 6 6 6 6 6 7 6 7 6 6 6 7 7 6 6 6 6 6 6 5 4 4 3 3 4 5 5 5 5 6 5 4 7 7 9 9 12 9 6 8 11 11 9 9 7 7 9 9 8 8 9 10 10 11 11 13
6 8 11 14 17 17 18 18 17 14 15 17 15 15 15 12 5 5 4 4 4 5 6 6 6 6 6 7 7 5 4 3 3 3 3 2 3 2 3 3 4 5 6 6 6 7 7 7 8 6 5 6 7 8 6 13 11 10 8 11 13 9 8 8 7 9 9 8 8 10 10 11 12 11
11 12 13 16 16 16 13 10 7 5 6 11 14 14 11 5 4 4 4 3 4 6 6 5 6 5 4 4 3 3 4 5 6 5 4 3 5 3 4 4 6 5 6 6 7 6 6 7 8 6 6 5 6 8 8 10 12 8 8 9 12 14 6 4 8 9 8 9 9 10 10 9 10 11
8 10 9 7 9 8 12 12 9 8 9 8 7 5 4 4 4 5 4 5 5 5 4 3 3 2 2 3 4 4 4 4 4 4 4 4 5 3 4 4 6 6 6 5 6 7 7 7 7 6 6 6 5 6 8 7 10 11 9 8 9 11 11 9 8 7 7 8 9 10 9 8 9 9
7 7 7 10 7 7 7 7 5 5 5 6 6 5 4 5 5 6 8 7 5 3 3 2 1 2 3 3 4 3 4 4 4 3 4 4 4 3 2 2 6 5 5 4 5 6 6 6 6 5 6 6 7 7 4 6 8 10 10 10 10 10 8 9 9 6 7 8 9 10 10 8 9 9
6 6 6 6 6 6 6 6 6 6 5 5 5 6 6 5 6 5 5 5 5 5 3 3 3 4 4 4 3 4 4 5 5 3 4 4 5 3 3 7 7 6 7 6 3 6 5 5 5 6 7 6 6 7 7 10 7 6 8 11 10 10 8 7 7 7 8 8 9 10 11 9 7 9
6 6 7 6 7 6 6 6 6 6 6 6 6 6 8 7 6 5 5 5 5 4 4 4 4 4 4 4 4 5 5 4 4 5 6 5 4 4 6 6 7 5 5 7 6 6 4 5 4 5 4 4 4 6 7 9 12 8 8 8 9 11 8 6 6 7 7 7 11 12 11 11 8 6
8 7 8 7 7 7 7 7 7 6 7 7 6 6 6 5 6 5 5 5 4 4 4 4 4 4 5 5 4 5 5 5 5 4 4 5 5 6 6 6 7 5 5 6 6 4 4 6 5 6 4 5 6 4 10 11 9 10 8 8 9 10 9 4 6 7 8 9 8 10 11 11 10 7
7 7 7 7 7 7 7 7 6 7 7 6 6 6 5 5 5 6 5 4 5 4 4 4 4 4 4 4 5 5 5 4 4 4 5 5 5 5 4 5 6 6 5 6 7 5 4 6 4 6 7 7 6 8 3 7 6 6 6 7 7 9 7 5 6 7 8 9 8 9 11 12 12 10
7 7 7 7 7 8 8 7 7 6 6 6 5 6 6 6 6 6 6 4 5 5 6 4 5 5 5 5 5 5 5 5 5 4 4 4 5 5 5 5 6 6 6 6 5 5 3 5 4 5 6 8 8 10 8 1 8 8 6 8 9 9 8 6 8 10 8 8 9 8 10 11 12 12
7 7 7 7 7 7 7 6 7 6 6 6 5 5 5 6 6 6 4 5 5 5 6 6 5 4 5 5 5 5 4 4 4 4 5 5 4 5 5 6 6 5 6 6 4 5 5 4 4 5 5 7 10 10 11 1 1 5 7 6 9 12 8 7 7 9 10 8 9 9 8 10 11 11
6 7 8 7 6 7 7 6 6 6 6 6 6 6 7 6 6 5 5 6 6 6 5 4 5 5 5 5 5 5 5 4 5 5 5 5 5 5 5 5 6 6 4 6 4 5 4 5 5 5 5 6 8 9 7 9 8 7 10 15 11 11 10 7 8 8 8 9 9 8 7 9 13 19
6 6 6 6 6 6 6 6 6 6 6 6 6 6 6 6 5 6 5 5 6 5 6 5 5 4 4 5 5 4 4 6 6 6 5 5 4 4 5 5 6 6 5 6 6 6 5 6 6 6 6 8 7 5 5 6 7 6 8 10 14 12 10 8 8 9 9 8 8 10 11 10 9 7
7 7 7 7 6 6 7 6 6 6 6 6 6 5 5 5 5 5 5 6 6 6 5 5 5 5 5 5 5 5 6 5 5 5 4 4 5 6 7 5 5 5 5 7 6 6 6 7 8 10 4 2 3 3 5 8 9 9 9 9 8 13 16 14 9 9 10 11 10 10 10 8 9 10
7 7 7 7 7 7 6 6 6 6 5 5 5 5 5 5 6 7 6 5 5 5 5 5 5 5 4 5 5 5 6 6 5 5 5 6 6 4 6 4 6 5 5 7 7 7 6 4 4 2 5 5 4 4 7 7 10 10 9 10 9 9 12 15 17 17 12 10 9 9 9 9 7 8
6 6 6 5 6 5 6 6 5 6 6 5 6 5 5 4 3 3 4 4 4 4 4 4 4 4 4 4 5 5 5 4 5 5 5 5 5 5 6 6 6 6 6 7 6 5 6 4 4 5 5 4 3 2 7 8 8 9 10 10 11 8 7 12 16 18 19 19 16 12 9 9 8 9
6 6 5 5 5 5 5 5 5 5 5 5 5 5 5 5 4 4 5 4 4 5 5 5 4 5 5 4 6 5 5 6 5 5 5 4 5 6 5 5 5 5 6 5 5 6 6 6 5 5 4 5 3 4 7 7 9 9 8 9 9 9 10 9 9 11 12 13 15 16 18 17 15 17
5 5 6 5 5 5 5 5 5 5 5 5 6 6 5 4 5 4 4 5 5 5 5 5 5 5 5 4 5 5 6 5 5 5 4 4 5 6 4 5 5 5 6 5 4 6 4 4 4 2 3 5 3 4 7 7 9 9 9 9 11 9 7 8 10 11 9 10 13 19 19 19 18 18
Wind_Direction
121 115 120 123 122 115 105 94 91 95 89 94 101 122 144 151 133 167 169 205 174 235 171 168 238 163 189 154 192 156 209 250 233 226 303 295 296 310 332 334 334 335 336 337 337 337 338 339 337 337 336 336 335 335 335 335 335 335 336 335 334 333 333 333 333 332 330 329 328 330 328 327 327 327
122 120 115 121 115 111 101 102 96 95 103 97 101 98 107 129 147 160 165 233 176 197 241 161 187 214 208 176 205 178 212 247 247 190 247 284 283 316 332 328 327 327 327 329 332 334 336 334 335 335 335 334 334 334 334 334 333 334 335 334 333 333 333 332 332 329 328 329 325 325 330 329 326 326
127 128 124 121 112 113 109 100 95 91 96 104 102 104 92 90 128 141 128 147 263 141 187 242 159 157 198 183 200 224 216 234 244 234 248 254 280 317 319 317 318 320 323 325 329 333 333 332 333 334 333 333 333 334 333 332 332 333 333 333 333 333 332 331 329 328 328 327 325 327 328 330 328 329
129 127 125 128 127 128 115 109 107 108 107 113 112 115 115 103 119 129 132 158 212 230 163 169 185 160 167 189 178 254 237 232 245 235 245 252 286 310 296 299 305 311 318 323 327 328 327 328 330 331 330 331 331 332 331 331 332 332 332 332 334 332 331 329 328 327 327 326 325 328 328 327 329 327
126 127 127 132 135 134 127 132 127 125 131 118 121 126 122 137 152 136 142 164 222 300 138 142 169 187 149 239 184 204 229 259 281 266 262 276 294 288 280 274 284 299 310 320 323 321 321 324 327 328 329 328 329 329 331 333 333 332 332 332 332 332 330 328 328 328 326 326 326 327 327 326 324 324
136 134 131 140 145 144 138 141 143 149 141 139 142 161 155 165 184 182 125 178 157 228 287 71 119 182 178 183 202 171 225 278 268 278 285 295 280 276 272 268 269 284 301 312 316 318 317 317 320 323 326 325 326 328 331 332 332 331 332 332 331 330 329 328 328 327 326 325 323 324 326 326 324 324
143 136 142 152 153 144 139 142 145 150 155 151 155 176 173 174 188 188 156 138 189 201 248 190 172 219 213 177 236 281 225 235 224 267 284 270 272 269 264 262 263 273 295 307 311 314 317 314 311 315 321 322 323 326 328 331 332 332 332 331 330 328 328 327 327 326 326 325 324 324 324 324 324 324
153 151 147 158 153 144 144 150 153 160 164 165 168 173 191 169 179 186 165 165 154 191 181 295 159 255 176 303 69 201 225 234 279 254 262 272 283 276 262 251 253 267 292 300 308 316 315 312 308 310 315 317 319 322 326 329 331 332 330 329 327 326 327 327 327 326 325 324 324 324 325 327 326 323
154 156 157 158 157 155 151 154 159 165 169 175 167 174 184 178 173 170 177 193 143 159 206 247 273 170 297 215 233 231 246 297 286 271 266 287 284 281 263 254 273 278 292 304 309 311 310 309 310 310 313 314 315 320 324 327 331 330 328 326 324 324 325 326 327 326 325 325 324 324 323 324 324 322
157 157 159 162 165 165 165 169 167 167 172 171 173 174 182 178 169 170 183 175 184 173 204 206 276 309 253 317 267 238 229 273 291 303 295 302 288 279 308 307 296 301 305 302 289 293 299 300 311 314 313 313 314 319 322 326 328 327 325 322 322 323 325 326 327 327 325 325 323 323 324 324 324 326
156 158 159 164 171 174 172 166 170 170 173 179 180 180 180 177 170 185 191 180 179 191 207 243 238 254 270 230 268 291 208 208 203 273 309 293 249 320 329 311 312 307 298 290 298 299 306 313 315 311 311 311 311 316 321 324 324 323 319 319 322 323 325 326 327 327 326 324 323 323 323 324 327 325
163 162 160 166 173 172 168 169 170 170 175 172 179 183 173 174 175 189 187 185 185 192 204 221 239 251 250 280 287 310 334 304 321 254 228 281 300 304 288 286 312 306 301 302 301 327 328 310 305 305 304 303 306 314 318 319 319 316 314 319 322 323 326 326 327 326 326 325 323 324 324 324 324 324
161 159 152 158 163 170 172 171 172 169 167 169 177 189 172 178 181 188 191 189 184 196 197 240 242 234 253 253 242 274 249 243 243 236 273 275 285 306 315 297 309 291 301 310 326 324 323 307 303 298 289 285 301 306 312 314 310 307 315 320 321 324 326 326 326 326 326 325 323 323 324 324 324 323
160 157 147 158 163 168 167 160 168 170 174 174 176 178 175 181 182 187 189 195 192 183 204 225 210 235 246 235 227 233 234 190 307 309 287 280 308 333 299 288 234 291 347 331 315 300 308 299 297 294 287 290 301 300 311 300 306 314 317 318 322 324 326 328 328 327 326 325 324 323 323 323 323 324
160 157 158 155 157 155 158 155 153 167 174 177 181 184 185 186 180 181 192 205 184 189 212 214 211 227 242 236 207 232 236 242 232 241 232 253 310 301 307 303 306 8 34 315 304 297 297 289 289 290 288 292 297 306 299 309 316 315 315 319 322 324 327 328 328 327 326 325 324 323 324 325 325 325
159 162 162 160 157 164 167 164 167 171 177 177 176 183 191 198 201 195 186 184 189 193 203 216 219 204 238 222 211 248 232 243 249 212 180 227 261 273 274 276 287 285 36 319 304 294 299 276 282 285 284 294 298 300 311 316 313 312 315 318 321 325 328 328 328 328 327 326 325 325 325 325 326 326
163 164 164 161 168 171 169 169 181 183 191 196 196 199 203 209 210 214 215 204 189 182 199 213 227 214 220 224 224 179 188 182 187 215 231 231 244 250 261 271 281 300 9 306 296 292 299 289 283 281 288 293 296 305 310 310 310 310 313 317 322 327 328 329 329 329 327 327 327 327 326 326 327 327
166 168 167 165 173 174 177 186 186 188 191 191 196 205 208 212 222 223 223 220 207 194 203 199 222 221 185 218 196 217 203 184 220 205 241 215 234 243 256 277 289 296 292 269 285 287 294 263 286 291 299 293 300 302 304 309 309 307 310 317 324 326 327 328 329 328 328 328 328 328 327 327 327 329
162 166 167 174 179 177 187 193 188 184 187 185 196 203 211 212 213 215 221 219 214 213 208 202 221 216 217 229 231 229 224 201 201 193 207 221 233 262 281 281 268 278 249 250 264 276 294 326 303 293 300 307 298 300 302 304 304 305 311 323 325 325 325 327 328 329 329 329 330 329 328 327 328 330
162 163 169 174 183 188 194 197 194 190 179 182 190 202 212 216 215 219 215 220 222 218 216 217 212 210 209 219 225 201 188 208 193 140 99 94 199 260 286 287 269 256 251 244 246 281 288 313 297 296 305 305 298 301 296 298 304 304 321 325 323 322 324 327 329 330 329 329 329 329 329 329 329 331
161 171 175 180 185 189 202 196 198 198 186 186 192 200 207 213 213 226 220 224 227 230 232 233 233 234 237 242 246 243 237 228 167 135 153 228 183 250 277 285 290 278 212 253 268 274 287 311 304 300 302 301 296 295 286 282 293 325 326 321 319 320 321 325 329 330 329 329 328 329 329 330 331 333
168 181 182 187 190 195 205 195 201 201 190 188 195 197 205 214 223 233 220 235 263 259 254 253 252 253 255 258 259 258 257 270 156 162 202 193 151 224 241 271 293 303 293 261 241 127 257 303 308 305 302 296 250 253 264 260 354 330 316 314 315 316 318 324 328 329 328 327 327 329 330 330 332 332
177 186 194 198 197 198 198 199 204 204 196 188 189 195 195 219 226 227 197 206 231 248 263 269 266 265 260 262 268 271 261 196 168 187 197 185 197 235 257 272 320 316 302 191 126 313 286 340 291 12 330 313 276 215 137 4 318 303 306 306 307 310 318 323 326 327 326 326 326 328 330 331 332 330
189 191 196 203 206 206 205 207 209 211 205 187 189 175 201 212 236 200 188 207 211 227 225 242 237 244 242 246 213 174 199 219 198 203 195 196 202 214 233 237 222 243 254 257 348 292 285 254 276 109 201 289 308 283 300 301 299 298 304 304 295 312 318 321 322 322 324 324 325 327 330 329 332 332
190 197 199 195 204 212 213 212 213 214 215 201 182 191 204 211 205 156 188 209 214 216 221 228 225 225 217 203 202 204 200 211 210 213 215 196 201 194 202 236 252 250 260 257 286 285 272 236 289 294 268 225 260 301 298 288 297 288 293 297 307 311 313 314 316 315 319 321 322 327 327 329 332 331
195 199 193 193 197 206 214 216 215 215 216 216 194 200 210 214 218 202 192 198 205 214 209 218 219 211 205 205 205 212 214 217 216 209 216 208 202 210 193 200 228 261 274 272 287 282 303 292 254 289 272 276 286 252 296 303 282 270 267 293 299 302 310 310 313 311 315 311 320 322 326 329 329 328
198 186 187 183 185 200 209 214 216 216 217 218 210 203 210 220 225 226 207 196 202 206 212 213 218 212 209 213 215 214 221 224 213 215 216 217 210 219 227 236 236 249 272 270 264 277 265 269 228 268 282 275 285 298 279 286 306 304 299 300 298 298 301 304 310 312 308 312 315 322 327 327 326 328
178 178 179 180 188 199 205 210 214 216 216 208 214 223 228 233 237 233 222 210 204 204 210 215 217 217 211 210 216 218 219 216 207 211 209 211 215 217 230 244 260 271 288 282 282 275 265 266 272 250 263 279 282 286 295 284 264 303 313 310 297 295 296 305 309 301 302 313 316 322 324 326 327 328
175 172 177 179 188 193 198 203 209 214 219 224 226 231 235 235 220 222 212 218 216 220 217 217 219 218 207 207 215 214 201 177 168 168 203 185 214 252 266 255 250 260 266 269 266 262 256 257 266 261 254 252 260 272 273 286 303 308 311 314 310 306 311 305 296 306 309 313 319 322 324 325 323 325
168 176 181 182 184 188 191 195 195 188 202 222 232 237 240 232 209 192 201 224 221 235 232 223 222 218 203 210 193 156 136 154 187 179 196 216 263 253 260 285 286 256 248 248 251 250 245 247 252 256 257 248 245 270 275 292 296 297 302 298 292 301 284 306 314 306 308 319 324 319 316 318 315 319
181 185 181 169 176 167 187 188 189 191 201 208 219 219 220 215 204 201 200 211 223 230 226 231 229 193 161 109 120 167 169 191 201 187 207 213 243 225 247 243 270 272 261 246 241 238 245 249 247 242 254 261 258 250 276 280 287 298 296 291 295 292 303 313 305 303 312 317 319 311 311 312 310 308
170 170 176 174 174 176 189 195 182 186 178 188 191 198 202 211 210 211 216 217 198 199 183 191 140 102 122 161 183 177 189 211 214 194 203 202 244 233 207 284 265 269 278 263 258 256 248 246 246 243 239 248 264 274 269 268 275 286 291 290 286 283 290 299 304 303 316 321 317 313 309 312 309 309
134 133 145 150 157 165 169 174 180 179 176 183 189 199 207 204 199 196 183 194 203 199 171 190 186 200 178 204 188 193 211 223 213 203 202 229 205 254 216 236 261 274 284 286 258 265 262 262 251 240 237 245 249 267 285 293 271 257 280 287 291 288 292 294 296 306 323 320 312 310 308 306 301 304
145 165 167 179 172 176 172 182 183 184 183 187 199 199 203 195 189 186 196 199 207 193 194 192 194 207 199 210 200 202 220 233 210 202 205 219 200 200 232 246 259 259 266 278 282 273 276 273 284 291 293 269 253 238 252 265 278 279 270 280 286 289 289 294 295 309 320 318 314 310 308 306 306 299
171 172 176 182 176 177 177 188 194 189 193 197 195 192 184 175 187 191 193 207 193 192 193 204 200 204 202 213 202 207 219 219 219 208 218 193 203 215 226 244 267 265 265 278 279 278 280 287 301 301 301 299 301 276 237 240 259 273 279 278 278 283 292 297 310 315 319 313 307 298 297 298 303 308
174 177 176 182 181 177 182 189 182 186 185 185 177 171 171 186 182 184 205 208 184 207 202 204 207 198 205 207 214 215 219 215 215 207 214 205 213 235 239 244 257 270 261 264 276 273 274 278 279 284 292 297 300 300 290 248 260 283 287 291 289 293 298 320 314 314 313 304 295 292 298 306 309 315
173 180 180 183 182 178 181 178 174 179 173 178 172 172 178 180 190 191 215 183 174 195 201 194 203 201 205 209 217 222 217 218 229 218 214 219 222 222 243 257 252 261 270 260 254 270 262 272 260 258 281 292 292 290 280 196 271 279 331 317 308 295 305 319 315 305 294 286 286 284 297 305 305 307
177 175 180 180 180 172 166 166 162 171 173 175 183 189 186 191 201 204 185 164 194 192 201 195 204 196 203 197 205 223 218 218 214 220 227 216 224 244 238 254 264 259 261 268 259 256 244 244 258 250 252 272 288 291 299 254 302 292 293 302 296 295 304 306 294 291 292 285 277 290 297 294 298 297
174 171 176 174 173 162 164 168 164 176 181 182 186 192 202 201 193 178 166 186 184 191 191 193 198 200 198 206 208 205 216 218 218 221 217 224 221 231 250 251 269 265 272 280 275 273 273 265 256 250 235 253 263 272 288 305 291 286 287 284 285 288 292 286 277 274 277 293 296 289 273 265 277 294
179 170 169 163 166 162 164 172 177 182 186 193 192 194 185 186 178 169 171 178 183 189 182 193 198 194 195 194 204 210 215 209 218 217 216 220 226 231 242 247 246 262 269 268 275 268 266 263 259 254 252 250 258 264 262 254 267 276 283 288 282 281 287 299 305 309 302 300 304 303 304 309 301 305
175 175 178 172 172 173 177 186 186 187 190 189 183 188 176 172 174 182 171 182 176 175 177 184 187 198 204 199 197 194 214 224 213 216 221 233 237 240 246 251 264 249 259 267 261 267 256 253 254 267 259 235 275 314 324 317 302 302 299 294 294 300 302 305 305 305 302 308 301 296 298 307 314 312
177 179 177 176 181 188 182 187 181 175 164 157 150 148 145 158 171 182 169 160 153 164 175 185 194 194 202 196 195 196 203 212 214 223 219 221 237 251 249 249 255 255 244 259 256 257 257 269 273 300 307 314 327 321 284 279 288 294 292 298 299 302 307 308 306 304 303 298 299 301 309 307 299 296
164 162 165 165 160 159 163 158 153 154 157 147 152 156 157 158 160 160 135 148 155 163 181 192 190 189 199 194 191 188 189 208 209 220 227 231 229 236 245 246 245 246 240 255 264 264 274 286 299 303 306 303 262 212 270 278 281 288 295 299 302 311 306 306 305 307 308 307 305 302 300 302 309 310
153 148 149 149 147 145 145 149 146 152 155 155 154 147 153 157 164 179 168 171 176 192 193 189 195 181 185 182 176 181 190 207 209 211 224 226 227 229 236 248 250 255 257 264 280 284 285 291 285 277 289 276 265 268 273 284 283 284 285 290 296 307 310 312 308 308 307 300 301 307 313 314 310 308
142 144 146 148 150 148 150 151 150 151 156 154 149 156 160 159 174 175 174 176 188 186 176 178 180 181 171 174 166 199 221 209 204 212 213 221 228 233 238 238 248 256 261 262 275 285 287 285 287 317 274 274 265 263 275 273 281 289 289 293 295 303 306 316 316 317 318 315 312 321 325 325 325 323